Hourly Data Report for October 03, 2017

All times are specified in Local Standard Time (LST). Add 1 hour to adjust for Daylight Saving Time where and when it is observed.

BAKER LAKE A
NUNAVUT

64°17'56.000" N
96°04'40.000" W
18.60 m
2300503
71926
YBK

Download Data

Hourly Data (October 2017)
Hourly Data Report for October 3, 2017
Temp Definition
°C
Dew Point Temp Definition
°C
Rel Hum Definition
%
Wind Dir Definition
10's deg

Wind Spd Definition
km/h
Visibility Definition
km
Stn Press Definition
kPa
Hmdx Definition


Wind Chill Definition


Weather Definition


TIME
00:00 Legend Double Dagger -1.4 -4.9 77 30 42 24.1 100.68   -9 Mainly Clear
01:00 Legend Double Dagger -1.8 -5.1 78 30 39 24.1 100.69   -10 LegendNANA
02:00 Legend Double Dagger -2.1 -5.0 80 30 34 24.1 100.76   -10 LegendNANA
03:00 Legend Double Dagger -2.1 -3.9 87 30 33 24.1 100.78   -10 Mainly Clear
04:00 Legend Double Dagger -1.9 -5.4 77 30 35 24.1 100.75   -9 LegendNANA
05:00 Legend Double Dagger -2.5 -6.1 76 29 25 24.1 100.76   -9 LegendNANA
06:00 Legend Double Dagger -1.6 -4.9 78 29 33 24.1 100.74   -9 Mostly Cloudy
07:00 Legend Double Dagger -2.5 -6.5 74 32 39 24.1 100.75   -11 LegendNANA
08:00 Legend Double Dagger -2.9 -7.6 70 32 43 32.2 100.78   -12 LegendNANA
09:00 Legend Double Dagger -3.3 -7.2 75 32 38 40.2 100.76   -12 Cloudy
10:00 Legend Double Dagger -3.3 -4.9 88 30 36 4.8 100.80   -11 Snow,Blowing Snow
11:00 Legend Double Dagger -3.3 -6.1 82 30 34 40.2 100.79   -11 LegendNANA
12:00 Legend Double Dagger -2.8 -6.2 77 30 36 40.2 100.80   -11 Cloudy
13:00 Legend Double Dagger -2.8 -6.5 76 30 43 40.2 100.76   -11 Freezing Rain
14:00 Legend Double Dagger -2.7 -5.3 82 30 33 40.2 100.72   -10 LegendNANA
15:00 Legend Double Dagger -2.5 -5.5 80 31 37 40.2 100.74   -10 Cloudy
16:00 Legend Double Dagger -2.8 -5.4 82 30 27 40.2 100.74   -10 Snow
17:00 Legend Double Dagger -3.0 -6.5 77 31 25 40.2 100.73   -10 LegendNANA
18:00 Legend Double Dagger -3.0 -7.3 73 31 29 40.2 100.71   -10 Cloudy
19:00 Legend Double Dagger -3.2 -7.2 74 31 31 24.1 100.69   -11 Snow
20:00 Legend Double Dagger -3.5 -7.1 76 30 31 24.1 100.64   -11 Snow
21:00 Legend Double Dagger -4.4 -6.8 84 30 26 16.1 100.64   -12 Snow,Blowing Snow
22:00 Legend Double Dagger -4.3 -7.8 77 32 34 24.1 100.63   -13 Snow,Blowing Snow
23:00 Legend Double Dagger -4.5 -6.7 85 29 20 24.1 100.59   -11 Snow

Notes on Data Quality.

Legend

  • E = Estimated
  • M = Missing
  • NA = Not Available
  • ‡ = Partner data that is not subject to review by the National Climate Archives
Date modified: